Погода в Новом Беное

Россия / Чеченская Республика     43°18′57″N   46°08′07″E
темп.,
°C
ветер,
м/с
пор.,
м/с
влажн.,
%
обл.,
%
осадки,
мм/ч
давл.,
гПа
погр.,
м
5 марта, пт
пт500:00+2ю11630 0.0 102322
03:00+1ю11630 0.0 102222
06:000ююв11610 0.0 102022
09:00+5св22490 0.0 1019293
12:00+9св22380 0.0 1018685
15:00+11св22350 0.0 1017754
18:00+7всв22500 0.0 101923
21:00+5ююв12630 0.0 102122
6 марта, сб
сб600:00+4ююв12580 0.0 102022
03:00+4ююз11530 0.0 102022
06:00+3ююз12490 0.0 102022
09:00+9всв00331 0.0 1019128
12:00+15св22250 0.0 1016452
15:00+17всв33230 0.0 1014544
18:00+11в22470 0.0 101427
21:00+9юз125230 0.0 101429
7 марта, вс
вс700:00+9зюз3346100 0.0 101357
03:00+7з3453100 0.0 1015114
06:00+2сз61192100 2.1 1020782
09:00+2зсз61073100 4.4 10231167
12:00+4зсз6938100 0.1 10231771
15:00+4сз4633100 0.1 10231494
18:00+2с124194 0.0 102340
21:00+1юв115072 0.0 102422
8 марта, пн
пн800:00−1ююв115941 0.0 102421
03:00−1ююз115921 0.0 102421
06:00−1юз11610 0.0 102421
09:00+2ссв22450 0.0 1022476
12:00+6всв45400 0.0 10191308
15:00+7всв33410 0.0 10171432
18:00+3св466120 0.0 1018285
21:00+2юв017559 0.0 101958
9 марта, вт
вт900:00+1юз0179100 0.0 101926
03:000ю117781 0.0 101821
06:000вюв117482 0.0 101821
09:00+4всв235350 0.0 1017506
12:00+7всв44428 0.0 10151044
15:00+8всв55474 0.0 10141063
18:00+5всв36730 0.0 1015228
21:00+3зсз11846 0.0 101722